Regional Weather Roundup
Issued by NWS Charleston, WV

Home | Current Version | Previous Version | Graphics & Text | Print | Product List | Glossary On
Versions: 1 2 3 4 5 6 7 8 9 10 11 12 13 14 15 16 17 18 19 20 21 22 23 24 25 26 27 28 29 30 31 32 33 34 35 36 37 38 39 40 41 42 43 44 45 46 47 48 49 50
000
ASUS41 KRLX 030510
RWRRLX
West Virginia Regional Weather Roundup
National Weather Service Charleston WV
100 AM EDT WED JUN 03 2015

Note: "fair" indicates few or no clouds below 12,000 feet with no
significant weather and/or obstructions to visibility.

WVZ003-030600-
Northern Panhandle of West Virginia

CITY           SKY/WX    TMP DP  RH WIND       PRES   REMARKS
WHEELING       MOCLDY    58  53  84 NE9       30.12S
$$

WVZ009-030600-
Northwest West Virginia

CITY           SKY/WX    TMP DP  RH WIND       PRES   REMARKS
PARKERSBURG    CLOUDY    60  55  83 CALM      30.12S
$$

WVZ006-030600-
Western West Virginia

CITY           SKY/WX    TMP DP  RH WIND       PRES   REMARKS
HUNTINGTON     CLOUDY    57  55  93 CALM      30.08F
$$

WVZ015-030600-
West Central West Virginia

CITY           SKY/WX    TMP DP  RH WIND       PRES   REMARKS
CHARLESTON     CLOUDY    59  56  89 CALM      30.08F
$$

WVZ022-031-030600-
North Central West Virginia

CITY           SKY/WX    TMP DP  RH WIND       PRES   REMARKS
CLARKSBURG     MOCLDY    57  55  93 NE5       30.09F
MORGANTOWN     CLOUDY    61  52  72 NE5       30.12S
$$

WVZ025-035-042-045-030600-
Southern West Virginia

CITY           SKY/WX    TMP DP  RH WIND       PRES   REMARKS
BECKLEY        LGT RAIN  57  55  93 E3        30.10F VSB 1/2
LOGAN          NOT AVBL
BLUEFIELD      CLOUDY    63  58  83 SE5       30.11S
LEWISBURG      CLOUDY    61  58  89 NE3       30.10S
$$

WVZ047-030600-
Northern Mountains of West Virginia

CITY           SKY/WX    TMP DP  RH WIND       PRES   REMARKS
ELKINS         CLOUDY    55  53  93 CALM      30.11S
$$

WVZ052-030600-
Eastern Panhandle of West Virginia

CITY           SKY/WX    TMP DP  RH WIND       PRES   REMARKS
MARTINSBURG    CLOUDY    59  56  89 NE5       30.16S
PETERSBURG     CLOUDY    58  56  94 CALM      30.15S
$$



USA.gov is the U.S. government's official web portal to all federal, state and local government web resources and services.